Hourly Data Report for October 04, 2017

All times are specified in Local Standard Time (LST). Add 1 hour to adjust for Daylight Saving Time where and when it is observed.

PEMBERTON AIRPORT CS
BRITISH COLUMBIA

50°18'20.326" N
122°44'02.720" W
204.30 m
1086082
71777
WGP

Download Data

Hourly Data (October 2017)
Hourly Data Report for October 4, 2017
Temp Definition
°C
Dew Point Temp Definition
°C
Rel Hum Definition
%
Wind Dir Definition
10's deg

Wind Spd Definition
km/h
Visibility Definition
km
Stn Press Definition
kPa
Hmdx Definition


Wind Chill Definition


Weather Definition


TIME
00:00 2.2 1.7 97 LegendMM LegendMM   100.15     LegendNANA
01:00 1.6 1.1 97 LegendMM LegendMM   100.18     LegendNANA
02:00 1.2 0.8 97 LegendMM LegendMM   100.18     LegendNANA
03:00 0.7 0.4 98 LegendMM LegendMM   100.17     LegendNANA
04:00 0.2 -0.1 98 LegendMM LegendMM   100.14     LegendNANA
05:00 -0.2 -0.5 98 LegendMM LegendMM   100.15     LegendNANA
06:00 0.1 -0.1 98 LegendMM LegendMM   100.13     LegendNANA
07:00 1.0 0.5 96 LegendMM LegendMM   100.12     LegendNANA
08:00 3.3 1.5 88 LegendMM LegendMM   100.12     LegendNANA
09:00 6.6 2.3 74 LegendMM LegendMM   100.05     LegendNANA
10:00 10.4 2.7 59 LegendMM LegendMM   99.99     LegendNANA
11:00 13.2 2.1 47 LegendMM LegendMM   99.89     LegendNANA
12:00 15.4 -1.3 32 LegendMM LegendMM   99.78     LegendNANA
13:00 17.9 -2.3 25 LegendMM LegendMM   99.67     LegendNANA
14:00 19.2 -1.1 25 LegendMM LegendMM   99.59     LegendNANA
15:00 18.7 0.8 30 LegendMM LegendMM   99.55     LegendNANA
16:00 17.7 3.7 39 LegendMM LegendMM   99.55     LegendNANA
17:00 13.1 5.7 61 LegendMM LegendMM   99.57     LegendNANA
18:00 9.1 5.4 78 LegendMM LegendMM   99.62     LegendNANA
19:00 6.9 4.6 85 LegendMM LegendMM   99.69     LegendNANA
20:00 5.5 3.9 90 LegendMM LegendMM   99.75     LegendNANA
21:00 4.5 3.3 92 LegendMM LegendMM   99.78     LegendNANA
22:00 3.8 2.9 94 LegendMM LegendMM   99.81     LegendNANA
23:00 3.0 2.3 96 LegendMM LegendMM   99.83     LegendNANA

Notes on Data Quality.

Legend

  • E = Estimated
  • M = Missing
  • NA = Not Available
  • ‡ = Partner data that is not subject to review by the National Climate Archives
Date modified: